Vacaville, CA

9:37 PM PDT on May 21, 2018 (GMT -0700)
Nut Tree

Weather History for KVCB - August, 2012

Change the Weather History Date:

Wednesday, August 22, 2012

  Actual Average Record
Temperature  
Mean Temperature 74 °F -  
Max Temperature 91 °F 91 °F 102 °F (1955)
Min Temperature 57 °F 54 °F 39 °F (1955)
Cooling Degree Days 8    
Growing Degree Days 24 (Base 50)    
Moisture  
Dew Point 53 °F    
Average Humidity 55    
Maximum Humidity 81    
Minimum Humidity 27    
Precipitation  
Precipitation 0.00 in - - ()
Sea Level Pressure  
Sea Level Pressure 29.84 in    
Wind  
Wind Speed 7 mph (SW)    
Max Wind Speed 12 mph    
Max Gust Speed 17 mph    
Visibility 10 miles    
Events      
Averages and records for this station are not official NWS values.
T = Trace of Precipitation, MM = Missing Value Source: NWS Daily Summary

Daily Weather History Graph

Daily Weather History Graph

Search for Another Location

Airport or City:

Astronomy

Aug. 22, 2012 Rise Set
Actual Time 6:29 AM PDT 7:51 PM PDT
Civil Twilight 6:01 AM PDT 8:18 PM PDT
Nautical Twilight 5:28 AM PDT 8:52 PM PDT
Astronomical Twilight 4:53 AM PDT 9:26 PM PDT
Moon 12:08 PM PDT 10:42 PM PDT
Length of Visible Light 14h 17m
Length of Day
13h 22m
Waxing Crescent, 30% of the Moon is Illuminated
Aug 22
Waxing Crescent
Aug 24
First Quarter
Aug 31
Full
Sep 8
Last Quarter
Sep 15
New

Hourly Weather History & Observations

Time (PDT) Temp. Heat Index Dew Point Humidity Pressure Visibility Wind Dir Wind Speed Gust Speed Precip Events Conditions
12:53 AM 64.0 °F - 53.1 °F 67% 29.80 in 10.0 mi SW 9.2 mph - N/A   Clear
1:53 AM 63.0 °F - 53.1 °F 70% 29.80 in 10.0 mi SW 9.2 mph - N/A   Clear
2:53 AM 60.1 °F - 52.0 °F 75% 29.82 in 10.0 mi WSW 4.6 mph - N/A   Clear
3:53 AM 60.1 °F - 53.1 °F 78% 29.82 in 10.0 mi South 3.5 mph - N/A   Clear
4:53 AM 59.0 °F - 53.1 °F 81% 29.83 in 10.0 mi SW 5.8 mph - N/A   Clear
5:53 AM 60.1 °F - 53.1 °F 78% 29.84 in 10.0 mi SSW 3.5 mph - N/A   Clear
6:53 AM 57.0 °F - 51.1 °F 81% 29.85 in 10.0 mi SW 3.5 mph - N/A   Clear
7:53 AM 62.1 °F - 53.1 °F 72% 29.87 in 10.0 mi WSW 4.6 mph - N/A   Clear
8:53 AM 68.0 °F - 54.0 °F 61% 29.88 in 10.0 mi SW 4.6 mph - N/A   Clear
9:53 AM 72.0 °F - 54.0 °F 53% 29.89 in 10.0 mi SW 5.8 mph - N/A   Clear
10:53 AM 78.1 °F - 54.0 °F 43% 29.88 in 10.0 mi SW 3.5 mph - N/A   Clear
11:53 AM 82.9 °F 81.9 °F 54.0 °F 37% 29.87 in 10.0 mi Variable 5.8 mph - N/A   Clear
12:53 PM 86.0 °F 84.2 °F 54.0 °F 33% 29.87 in 10.0 mi Variable 4.6 mph - N/A   Clear
1:53 PM 88.0 °F 85.7 °F 53.1 °F 30% 29.87 in 10.0 mi SSW 8.1 mph - N/A   Clear
3:53 PM 90.0 °F - 52.0 °F 27% 29.83 in 10.0 mi South 8.1 mph - N/A   Clear
4:53 PM 90.0 °F - 52.0 °F 27% 29.82 in 10.0 mi South 11.5 mph 17.3 mph N/A   Clear
5:53 PM 88.0 °F - 51.1 °F 28% 29.81 in 10.0 mi SSW 8.1 mph - N/A   Clear
6:53 PM 84.0 °F 82.5 °F 53.1 °F 34% 29.80 in 10.0 mi South 6.9 mph - N/A   Clear
7:53 PM 79.0 °F - 52.0 °F 39% 29.80 in 10.0 mi SSW 4.6 mph - N/A   Clear
9:53 PM 70.0 °F - 53.1 °F 55% 29.82 in 10.0 mi WSW 4.6 mph - N/A   Clear
10:53 PM 66.0 °F - 53.1 °F 63% 29.83 in 10.0 mi SW 10.4 mph - N/A   Clear
11:53 PM 63.0 °F - 53.1 °F 70% 29.83 in 10.0 mi WSW 11.5 mph - N/A   Clear